{"data":{"norad_id":66977,"intl_designator":"2025-288U","name":"STARLINK-35770","alt_names":[],"object_type":"PAYLOAD","status":"ACTIVE","operator":null,"country":"US","launch_date":"2025-12-08","launch_site_code":"AFETR","launch_vehicle":null,"mission":null,"orbit_class":"UNKNOWN","rcs_meters":null,"size_class":null,"mass_kg":null,"dimensions":null,"purposes":["comms"],"wikipedia_slug":null,"has_3d_model":false,"image_url":null,"decayed_at":null,"tle_current":{"epoch":"2026-09-20T08:04:32.921760Z","epoch_age_seconds":95648,"freshness":"FRESH","line1":"1 66977U 25288U   26263.33649215  .00012526  00000+0  46355-3 0  9993","line2":"2 66977  43.0021   4.4051 0001382 272.4191  87.6502 15.27607522 45050","mean_motion":15.27607522,"eccentricity":0.0001382,"inclination_deg":43.0021,"raan_deg":4.4051,"arg_perigee_deg":272.4191,"mean_anomaly_deg":87.6502,"bstar":0.00046355,"rev_number":4505,"period_min":94.265050365469,"perigee_km":482.01848197848,"apogee_km":483.91489103743,"semimajor_km":6861.103686508,"source":"CELESTRAK","updated_at":"2026-09-21T09:00:36.065708Z"}}}